Temp
-7 -6 -6 -7 -6 -6 -5 -5 -4 -4 -5 -5 -4 -5 -5 -8 -8 -6 -8 -8 -7 -6 -6 -7 -7 -7 -7 -7 -7 -7 -7 -7
-7 -6 -5 -6 -6 -6 -5 -5 -5 -5 -5 -5 -4 -4 -5 -6 -6 -8 -6 -6 -7 -7 -7 -6 -6 -6 -7 -6 -6 -6 -6 -6
-7 -6 -7 -5 -5 -6 -5 -5 -5 -4 -5 -4 -4 -4 -5 -5 -6 -7 -6 -6 -6 -6 -6 -6 -6 -6 -6 -6 -6 -6 -6 -6
-7 -7 -6 -6 -6 -6 -5 -5 -5 -5 -5 -4 -4 -4 -5 -5 -7 -6 -6 -6 -6 -6 -6 -5 -6 -6 -6 -6 -6 -6 -6 -6
-7 -6 -6 -6 -6 -5 -5 -4 -4 -3 -4 -4 -4 -4 -5 -6 -5 -5 -5 -5 -5 -5 -5 -5 -5 -5 -5 -6 -6 -6 -6 -6
-7 -6 -6 -6 -6 -6 -5 -5 -4 -5 -5 -4 -4 -4 -4 -4 -5 -5 -5 -4 -5 -5 -5 -5 -5 -5 -5 -5 -5 -6 -6 -6
-7 -7 -6 -6 -6 -6 -5 -5 -5 -4 -4 -4 -4 -4 -4 -4 -5 -5 -4 -4 -5 -5 -5 -5 -5 -5 -5 -5 -6 -6 -6 -6
-7 -7 -7 -6 -6 -6 -6 -5 -6 -5 -6 -4 -4 -4 -4 -4 -5 -5 -5 -5 -5 -5 -5 -5 -5 -5 -5 -5 -6 -6 -6 -6
-7 -7 -7 -6 -6 -6 -6 -6 -5 -5 -5 -3 -4 -4 -4 -4 -5 -5 -5 -5 -5 -5 -5 -5 -5 -5 -5 -6 -6 -6 -6 -5
-8 -7 -7 -6 -6 -7 -6 -6 -6 -5 -6 -5 -4 -4 -5 -5 -5 -5 -5 -5 -5 -5 -5 -5 -5 -5 -6 -6 -6 -5 -5 -4
-8 -7 -7 -7 -7 -6 -6 -6 -6 -6 -5 -6 -5 -6 -5 -5 -5 -5 -5 -5 -5 -5 -5 -5 -5 -6 -6 -5 -5 -5 -4 -4
-8 -7 -7 -7 -7 -7 -7 -6 -6 -6 -6 -6 -5 -5 -5 -5 -5 -5 -5 -5 -5 -5 -5 -5 -6 -5 -5 -5 -4 -4 -4 -4
-7 -8 -7 -7 -7 -7 -7 -6 -7 -7 -6 -6 -5 -6 -6 -5 -5 -5 -5 -5 -5 -5 -5 -5 -5 -5 -5 -4 -4 -4 -5 -5
-7 -8 -8 -7 -7 -6 -7 -7 -7 -6 -6 -5 -5 -6 -6 -6 -5 -5 -5 -5 -5 -5 -6 -5 -5 -5 -5 -5 -5 -5 -5 -5
-6 -5 -7 -7 -7 -7 -7 -7 -7 -7 -6 -6 -6 -5 -5 -6 -6 -5 -5 -5 -5 -6 -6 -5 -5 -5 -5 -5 -5 -5 -5 -5
-8 -7 -7 -7 -7 -7 -7 -7 -7 -7 -6 -7 -6 -6 -6 -6 -6 -6 -5 -5 -5 -6 -6 -6 -5 -5 -5 -5 -5 -6 -6 -6
-7 -8 -7 -6 -7 -8 -7 -8 -7 -8 -7 -7 -7 -6 -6 -6 -6 -6 -6 -5 -5 -6 -6 -6 -6 -6 -6 -6 -6 -6 -6 -6
-6 -7 -6 -7 -7 -7 -8 -8 -7 -7 -8 -7 -8 -6 -6 -6 -6 -6 -6 -6 -6 -6 -6 -6 -6 -7 -6 -7 -6 -6 -6 -6
-8 -9 -8 -7 -7 -7 -7 -7 -8 -8 -7 -8 -7 -6 -6 -6 -6 -6 -6 -6 -6 -6 -6 -6 -7 -7 -7 -7 -7 -6 -7 -6
Height
5911 5913 5916 5918 5906 5911 5917 5924 5929 5926 5928 5930 5930 5931 5931 5935 5933 5933 5936 5934 5934 5934 5934 5933 5934 5934 5934 5934 5934 5934 5935 5935
5910 5910 5912 5915 5918 5921 5921 5925 5923 5926 5930 5929 5932 5933 5934 5935 5935 5935 5936 5936 5935 5935 5936 5937 5937 5937 5938 5938 5938 5937 5937 5938
5908 5908 5913 5915 5916 5918 5918 5927 5922 5929 5933 5930 5932 5934 5935 5936 5936 5937 5938 5939 5938 5938 5938 5939 5939 5940 5940 5940 5940 5940 5940 5939
5906 5908 5910 5911 5917 5919 5921 5928 5920 5924 5928 5931 5932 5934 5936 5937 5938 5939 5939 5941 5940 5940 5940 5940 5941 5941 5941 5941 5941 5941 5941 5940
5901 5907 5909 5909 5913 5915 5925 5920 5925 5931 5928 5930 5931 5934 5936 5937 5938 5939 5940 5943 5942 5941 5941 5942 5943 5943 5943 5943 5942 5942 5941 5940
5895 5901 5908 5907 5909 5912 5917 5913 5925 5927 5925 5928 5931 5933 5935 5936 5938 5940 5942 5943 5943 5942 5943 5944 5944 5944 5944 5944 5944 5943 5942 5941
5891 5896 5906 5908 5909 5912 5912 5918 5925 5924 5926 5926 5929 5931 5933 5936 5938 5940 5942 5942 5943 5943 5944 5944 5945 5945 5945 5944 5944 5943 5942 5941
5884 5878 5893 5901 5908 5912 5913 5913 5916 5909 5922 5925 5927 5930 5933 5935 5937 5939 5941 5942 5943 5943 5943 5944 5944 5944 5944 5944 5944 5943 5941 5939
5876 5883 5890 5895 5894 5909 5911 5912 5914 5916 5920 5920 5925 5929 5932 5934 5936 5938 5939 5940 5941 5942 5943 5943 5943 5943 5943 5942 5942 5940 5938 5937
5873 5880 5881 5892 5896 5900 5908 5911 5913 5920 5920 5920 5924 5927 5930 5933 5935 5937 5938 5939 5940 5941 5942 5942 5942 5942 5942 5941 5940 5938 5937 5935
5865 5872 5883 5887 5892 5899 5903 5909 5912 5916 5912 5919 5922 5926 5929 5931 5933 5935 5936 5937 5939 5940 5940 5940 5941 5941 5940 5939 5938 5937 5936 5935
5856 5864 5870 5882 5890 5895 5899 5904 5909 5912 5914 5919 5920 5924 5928 5930 5931 5933 5935 5936 5937 5938 5938 5939 5939 5939 5939 5938 5937 5937 5936 5934
5845 5854 5866 5877 5887 5890 5893 5902 5906 5909 5912 5916 5919 5925 5927 5929 5930 5931 5933 5934 5936 5936 5937 5937 5938 5938 5937 5937 5936 5935 5933 5931
5837 5844 5856 5869 5881 5885 5892 5896 5901 5904 5908 5912 5918 5923 5923 5926 5928 5930 5931 5933 5934 5934 5935 5936 5935 5935 5936 5935 5934 5932 5930 5928
5829 5838 5852 5860 5870 5881 5887 5891 5896 5898 5904 5908 5912 5916 5920 5923 5926 5928 5929 5931 5932 5932 5932 5933 5933 5934 5933 5932 5931 5929 5927 5924
5823 5829 5840 5851 5862 5872 5879 5885 5886 5894 5898 5903 5907 5912 5916 5919 5922 5926 5928 5929 5930 5930 5930 5930 5931 5931 5930 5930 5928 5926 5924 5921
5811 5820 5832 5842 5853 5864 5874 5877 5878 5881 5888 5892 5901 5907 5912 5915 5919 5922 5925 5926 5927 5928 5928 5928 5928 5928 5928 5926 5925 5924 5921 5919
5807 5816 5824 5832 5844 5855 5864 5872 5871 5876 5878 5885 5893 5903 5907 5911 5915 5919 5921 5923 5924 5924 5925 5925 5924 5925 5925 5923 5922 5920 5918 5915
5794 5807 5818 5825 5835 5845 5854 5861 5866 5869 5875 5882 5887 5898 5903 5906 5911 5915 5916 5918 5920 5921 5922 5922 5922 5922 5921 5920 5918 5916 5914 5911
Wind_Speed
22 21 16 12 20 16 11 5 6 6 6 5 5 5 6 12 10 9 10 9 11 11 13 13 12 12 10 9 8 8 7 6
24 27 19 11 13 5 8 14 13 10 4 10 5 5 7 11 9 10 8 11 11 12 12 13 14 13 12 11 10 10 9 8
26 28 16 13 10 13 18 9 6 2 7 9 8 7 8 9 11 10 9 9 12 12 11 11 11 11 11 11 11 10 10 10
24 24 21 19 10 14 6 13 8 9 12 10 9 8 10 12 13 12 10 11 13 13 12 10 10 10 10 11 11 11 12 13
26 25 26 25 19 20 13 17 14 12 17 13 10 10 11 13 12 11 11 12 11 11 10 8 7 7 8 8 8 9 10 12
27 27 22 24 20 16 19 7 6 7 12 15 11 12 13 11 11 10 13 12 10 9 8 6 5 3 3 3 5 7 9 12
28 28 23 22 19 18 21 15 15 23 21 18 11 12 14 12 11 12 13 14 11 8 7 4 3 1 2 4 7 9 11 13
35 25 24 34 25 22 21 29 15 19 14 19 16 14 13 11 12 14 15 16 12 8 5 3 1 3 4 5 8 10 13 14
39 30 19 27 25 27 20 20 22 7 13 20 18 14 12 9 13 16 17 14 11 9 7 4 4 5 5 8 10 13 13 10
38 32 33 27 23 22 19 17 16 16 21 27 13 13 12 11 15 17 15 14 11 10 8 6 5 6 7 9 10 10 7 7
40 40 35 31 29 27 21 21 20 21 22 21 17 17 14 12 14 15 15 13 12 11 9 7 6 7 8 8 8 7 6 7
42 42 44 35 28 28 23 24 23 31 23 26 24 24 15 11 12 12 14 14 13 12 9 7 6 6 7 6 5 6 7 9
58 44 38 34 28 24 34 22 22 28 31 28 24 18 16 14 11 12 16 17 15 13 10 9 6 5 5 5 5 7 8 9
63 50 42 37 30 34 27 28 21 25 36 32 27 21 22 17 14 13 18 20 18 15 11 8 5 6 5 5 6 8 10 12
57 56 50 46 36 30 27 34 23 23 30 31 29 33 20 17 17 15 16 21 19 16 12 9 7 6 6 5 6 8 12 14
55 54 54 51 45 27 34 25 33 27 31 28 30 27 23 24 22 18 15 19 20 17 13 9 8 7 3 4 6 10 13 15
58 47 50 49 49 33 29 36 26 38 43 36 27 24 20 24 24 23 20 20 20 15 13 11 9 6 0 6 9 12 16 20
52 54 48 47 46 49 34 28 46 26 41 26 20 28 27 25 23 24 25 24 23 17 14 11 12 7 5 9 9 13 17 22
50 36 48 47 44 45 49 42 28 28 38 25 24 25 26 24 19 22 26 26 22 17 12 11 11 9 9 10 11 14 18 21
Wind_Direction
209 210 196 228 289 162 95 279 104 245 201 199 216 185 161 143 163 132 137 136 120 112 106 103 103 103 95 85 80 79 78 79
217 209 204 174 202 107 200 160 218 147 208 246 220 203 188 170 157 151 152 143 133 124 118 114 108 101 96 91 83 74 69 63
225 214 208 218 190 199 162 191 178 138 199 211 216 201 186 172 151 160 155 158 145 130 122 114 106 100 95 89 82 74 62 49
214 218 202 192 227 213 128 197 177 145 205 233 200 196 182 173 167 170 170 183 159 142 126 112 101 91 82 75 69 61 48 36
203 221 214 214 214 182 200 170 207 150 266 228 202 192 189 175 179 178 178 189 164 140 127 122 110 95 79 67 50 39 28 19
202 196 222 214 196 213 212 221 187 218 222 234 213 197 196 196 194 194 202 192 180 159 151 141 126 107 74 33 11 0 358 359
213 191 219 222 219 212 200 181 179 240 240 219 210 210 202 204 206 216 211 199 195 172 162 155 157 214 316 324 334 339 340 342
212 208 193 210 216 211 220 195 220 166 204 210 196 208 205 207 214 221 217 206 201 190 182 191 232 292 307 324 327 331 334 332
213 223 207 223 180 206 215 228 211 186 223 221 209 209 205 212 221 220 221 210 202 203 207 227 258 283 303 316 322 322 324 332
214 210 217 214 214 193 202 211 207 164 220 244 214 212 207 218 224 226 222 213 207 208 214 228 248 272 289 301 307 314 321 333
208 212 220 216 203 216 205 202 200 190 187 222 194 192 197 228 220 227 220 214 206 205 214 219 242 272 288 301 308 313 322 332
202 209 211 215 204 213 203 214 210 179 189 200 205 199 196 236 219 221 226 217 209 209 213 220 248 280 302 302 309 322 336 343
210 212 212 206 210 205 214 201 207 207 204 197 208 197 213 222 229 232 237 223 218 215 220 231 249 283 290 309 322 330 332 332
211 214 213 192 203 211 212 196 201 208 215 213 214 205 223 218 234 245 247 233 226 222 226 239 253 268 290 300 318 331 329 334
213 214 211 201 192 211 208 213 206 192 218 226 227 220 228 230 240 250 256 245 231 232 229 235 239 259 278 303 331 332 323 320
216 219 215 212 201 197 215 210 208 193 199 210 221 226 229 236 239 248 267 252 243 241 232 222 236 247 277 331 314 313 313 321
212 214 215 214 212 195 215 207 215 195 195 189 203 214 225 233 238 244 261 256 238 238 239 228 228 236 300 300 305 312 317 325
210 215 212 212 210 207 198 213 226 229 219 183 185 213 226 233 236 245 258 254 234 244 252 235 229 233 277 285 311 316 328 334
208 213 221 219 208 206 212 202 206 234 212 207 183 219 230 222 219 244 247 234 236 243 247 244 237 250 262 274 300 329 339 342